Probability
0 1 2 3 3 4 6 6 5 5 6 6 4 3 3 4 4 5 5 5 5 5 4 5 7 9 8 6 3 1 0 0 1 2 4 4 2 2 3 6 6 6 7
1 0 1 2 3 4 6 6 6 5 6 6 4 3 3 4 4 5 6 7 7 6 5 5 6 7 6 3 2 1 0 0 1 2 3 3 2 1 3 6 7 6 7
1 0 0 1 1 3 6 7 7 6 6 6 5 4 4 5 5 5 6 7 7 5 4 4 4 4 2 1 2 1 0 0 0 1 1 1 2 2 3 6 6 7 8
1 0 0 0 1 3 5 7 7 6 5 5 6 5 5 5 6 5 5 6 5 4 3 3 3 3 1 0 1 1 0 0 0 0 0 1 2 3 4 5 5 6 7
1 1 1 1 0 1 3 6 6 4 4 4 6 6 5 5 5 5 5 5 5 4 3 3 3 2 1 0 0 0 0 0 0 0 0 0 1 3 4 4 4 4 5
2 2 2 2 1 0 1 3 3 3 3 4 5 5 5 5 5 5 4 5 4 3 3 3 2 1 0 0 0 0 0 0 0 0 0 0 1 2 2 3 3 3 3
3 3 3 3 2 1 1 2 2 3 3 3 4 4 4 4 4 4 4 4 4 3 3 2 1 0 0 0 0 0 0 0 0 0 0 0 0 1 1 1 2 2 1
3 3 3 3 3 3 3 3 2 3 3 3 3 3 3 3 3 3 3 4 4 3 2 1 0 0 0 0 0 0 0 0 0 0 0 0 0 0 0 0 1 1 0
3 3 3 3 3 4 5 4 3 3 3 3 3 3 3 3 3 3 3 4 3 1 1 0 0 0 0 0 0 0 0 0 0 0 0 0 0 0 1 1 0 0 0
3 3 3 3 3 4 4 4 3 3 3 3 3 4 3 3 3 3 2 2 1 0 0 0 0 0 0 0 0 0 0 0 0 0 0 0 0 1 2 2 1 0 0
3 3 3 3 3 3 3 4 3 3 3 3 3 3 3 2 2 1 1 0 0 0 0 0 0 0 0 0 0 0 0 0 0 0 0 0 0 1 2 2 1 0 1
3 3 3 3 3 3 4 4 4 3 2 2 1 1 1 1 1 0 0 0 0 0 0 0 0 0 0 0 0 0 0 0 0 0 1 2 2 1 1 1 0 0 1
3 3 3 3 3 3 4 4 3 1 1 1 0 0 0 0 0 0 0 0 0 0 0 0 0 0 0 0 0 0 0 0 0 0 1 3 3 1 0 0 0 0 1
4 3 3 4 3 3 3 4 3 1 0 0 0 0 0 0 0 0 0 0 0 0 0 0 0 0 0 0 0 0 0 0 0 0 1 2 2 1 1 1 0 0 0
5 4 4 4 4 3 3 3 3 2 1 0 0 0 0 0 0 0 0 0 0 0 0 0 0 0 0 0 0 0 0 0 0 0 0 1 1 1 1 1 1 0 0
6 5 4 4 5 4 3 3 3 2 1 0 0 0 0 0 0 0 0 0 0 0 0 0 0 0 0 0 0 0 0 1 1 2 1 0 0 1 1 1 1 1 1
6 6 5 4 5 5 4 3 3 2 1 0 0 0 0 0 0 0 0 0 0 0 0 0 0 0 0 0 0 0 1 2 3 3 2 1 0 1 1 1 1 1 0
6 6 5 4 5 5 4 4 3 2 1 0 0 0 0 0 0 0 0 0 0 0 0 0 0 0 0 0 0 0 2 3 3 3 2 1 0 1 2 2 1 1 0
5 6 6 5 5 5 5 4 3 1 0 0 0 0 0 0 0 0 0 0 0 0 0 0 0 0 0 0 0 0 1 2 3 3 1 0 0 0 1 1 1 1 1
6 6 6 6 5 3 4 5 4 1 1 1 0 0 0 0 0 0 0 0 0 0 0 0 0 0 0 0 0 0 0 1 2 2 1 0 0 0 0 0 0 1 1
8 7 5 5 2 1 2 4 5 3 1 1 0 0 0 0 0 0 0 0 0 0 0 0 0 0 0 0 0 0 0 0 1 1 0 0 0 0 0 0 0 0 1
8 8 6 3 1 1 2 3 5 5 4 1 0 0 0 0 0 0 0 0 0 0 0 0 0 0 0 0 0 0 0 0 0 0 0 0 0 0 0 0 0 0 0
9 10 8 6 3 2 3 4 5 6 6 3 1 0 0 0 0 0 0 0 0 0 0 0 0 0 0 0 0 0 0 0 0 0 0 0 0 0 0 0 0 0 0
11 12 11 10 7 5 6 6 6 6 6 4 2 1 0 0 0 0 0 0 0 0 0 0 0 0 0 0 0 0 0 0 0 0 0 0 0 0 0 0 0 0 0
13 14 13 12 10 8 7 6 5 5 4 3 2 1 0 0 0 0 0 0 0 0 0 0 0 0 0 0 0 0 0 0 0 0 0 0 0 0 0 0 0 0 0
14 14 13 12 11 9 7 6 5 3 2 2 2 1 0 0 0 0 0 0 0 0 0 0 0 0 0 0 0 0 0 0 0 0 0 0 0 0 0 0 0 0 0
Wind_Speed
6 7 8 9 10 10 10 10 10 10 11 11 11 11 11 11 11 11 11 12 12 11 12 11 11 11 10 10 9 9 9 9 8 8 9 9 9 9 9 8 7 6 9
8 8 9 10 10 10 10 10 10 10 11 12 12 12 12 12 12 11 11 12 12 12 11 11 11 10 10 10 10 9 9 9 8 8 9 9 10 10 10 9 9 7 10
9 9 9 10 10 10 10 10 11 11 11 12 12 12 12 12 12 12 12 12 12 12 12 11 11 11 11 10 10 9 9 8 8 7 7 5 7 10 11 10 11 10 10
9 9 9 10 10 10 11 11 11 12 12 12 12 12 12 11 11 12 12 12 12 13 12 12 12 11 11 10 9 8 8 8 8 7 5 5 6 10 11 10 10 10 10
9 10 9 10 10 10 11 11 12 12 12 12 12 13 13 13 12 13 13 13 13 13 13 13 12 11 11 10 8 7 7 7 8 7 6 6 5 9 11 11 10 10 10
9 10 9 10 10 11 11 11 12 12 12 12 12 13 13 14 14 14 13 13 13 13 13 13 12 11 10 9 8 7 7 7 6 5 6 6 5 10 11 10 10 10 9
8 9 9 10 11 12 12 12 12 12 12 12 13 13 13 14 14 14 14 13 13 13 13 13 12 11 10 9 7 7 7 7 5 5 6 5 6 10 11 10 10 9 9
8 9 9 10 11 12 13 13 12 12 12 12 12 12 13 13 14 14 14 13 13 13 13 12 12 10 9 8 7 7 7 6 6 6 6 5 9 11 10 9 9 9 9
7 8 7 7 9 11 13 12 12 11 11 10 10 10 11 12 12 13 13 13 13 13 12 11 10 9 8 7 7 7 7 7 5 4 6 5 9 11 10 10 9 9 9
5 6 7 7 7 7 8 10 10 10 9 9 9 9 9 10 11 12 13 13 12 11 10 9 8 7 6 5 5 5 6 5 4 4 4 6 10 11 11 10 9 9 9
5 4 6 6 6 6 6 8 7 7 7 6 5 6 6 4 5 7 10 11 10 9 8 7 6 6 4 3 3 4 4 3 4 4 4 8 10 10 11 10 9 9 9
4 4 5 5 6 5 5 5 3 3 3 2 3 4 3 3 4 7 8 8 8 7 6 4 4 3 2 1 2 2 2 5 4 4 5 10 11 11 11 10 10 10 9
4 3 5 4 5 5 4 3 2 2 1 2 4 4 3 3 3 4 2 3 3 4 2 2 2 1 2 2 2 3 4 4 3 4 5 10 10 10 10 9 9 10 10
4 3 4 4 5 5 4 3 2 2 2 2 3 4 3 2 2 3 2 2 2 2 2 2 2 3 3 3 4 4 5 4 4 3 5 9 9 10 10 9 9 9 9
5 3 3 4 4 5 4 2 3 2 2 3 2 2 3 2 3 3 3 2 3 2 2 2 3 4 4 5 5 6 5 5 5 5 4 9 9 9 10 9 10 10 9
5 4 4 3 4 5 4 2 3 3 2 3 1 2 4 3 3 3 3 3 3 2 2 3 3 3 3 4 5 5 5 4 5 5 4 6 10 10 10 9 10 9 9
5 4 5 3 3 4 4 3 3 3 3 2 2 2 4 3 3 3 3 3 2 3 3 3 4 3 3 3 4 4 4 4 4 5 5 3 4 8 10 10 10 10 10
5 5 4 3 3 4 4 3 2 2 3 2 2 2 3 3 4 4 3 2 3 2 2 2 3 3 3 3 3 3 3 3 4 4 4 4 3 4 7 10 10 10 10
4 5 5 4 3 4 3 3 3 3 3 2 2 2 2 3 4 4 2 2 3 3 2 3 3 3 3 2 2 2 3 3 3 4 4 4 4 4 3 7 9 10 10
4 5 5 4 3 3 2 2 2 3 2 2 2 2 3 2 3 3 2 3 3 2 2 3 3 3 2 1 2 3 2 2 2 3 3 3 3 4 3 4 4 5 9
4 4 5 5 4 3 2 2 2 2 1 2 2 2 2 2 3 3 2 3 2 2 2 2 2 2 1 1 2 1 1 1 2 2 2 2 3 3 2 3 3 3 3
4 4 5 4 4 4 3 2 2 2 1 2 1 1 2 2 2 2 2 2 2 2 2 2 2 1 1 2 1 1 1 1 1 2 2 2 2 2 2 3 4 4 3
4 5 4 5 5 5 4 2 2 2 1 1 1 1 1 2 2 2 2 2 2 2 1 0 1 1 1 1 1 1 1 0 1 1 1 2 2 2 1 1 3 4 4
4 4 5 5 5 5 5 3 3 3 2 2 1 2 1 2 2 2 2 1 1 2 1 0 1 0 1 0 1 1 1 2 1 0 1 1 1 2 2 2 2 2 4
4 4 4 4 4 5 5 4 3 2 2 1 1 2 2 2 2 2 1 1 1 1 1 1 1 0 0 0 0 0 1 1 1 2 0 0 0 0 1 2 2 2 3
4 4 3 3 4 4 4 4 4 3 2 2 2 1 1 1 1 1 1 1 1 1 1 1 0 0 0 0 0 0 0 0 0 1 1 1 1 1 1 1 1 2 2
Wind_Direction
85 79 58 56 55 56 56 57 59 61 61 63 62 61 63 66 66 70 73 76 78 81 84 85 85 86 86 86 86 86 88 92 93 85 76 72 78 92 93 88 88 109 120
92 86 63 56 54 55 58 62 64 66 65 64 63 63 63 64 66 71 73 75 77 79 82 84 84 85 86 82 79 82 85 88 91 88 82 77 79 84 87 84 80 93 104
96 95 73 56 55 57 61 68 69 69 67 65 64 63 64 67 70 73 73 74 77 79 79 79 80 82 83 82 81 80 78 79 87 87 83 79 81 83 86 86 88 94 96
94 88 75 62 60 61 65 71 73 72 71 68 66 64 63 67 76 79 79 78 77 78 78 78 80 83 82 81 80 75 72 70 76 79 74 72 78 84 86 88 93 94 93
89 88 78 67 63 64 70 75 78 76 74 71 68 66 64 66 75 80 81 82 79 77 77 76 76 80 83 82 80 71 65 67 73 69 69 71 71 82 87 87 90 94 94
94 94 85 75 70 72 75 77 79 79 77 74 71 69 68 71 76 80 80 79 79 76 74 74 73 75 79 77 72 63 60 63 65 73 73 73 75 83 86 88 88 91 94
97 100 97 85 82 80 80 82 80 80 78 74 71 72 72 73 76 79 80 79 79 77 75 73 71 71 74 72 67 61 57 67 70 70 73 74 77 84 86 88 88 88 91
100 103 107 97 92 87 86 86 84 80 80 78 75 74 75 77 78 79 79 80 80 79 76 73 71 69 69 66 61 58 55 65 76 79 77 76 83 84 86 88 90 90 89
104 111 114 117 105 98 93 90 86 82 82 85 83 81 81 84 85 83 81 80 79 77 77 77 74 71 68 61 52 50 54 57 62 69 83 81 88 88 87 88 87 88 87
101 112 120 117 116 115 107 97 93 91 88 89 88 87 90 90 87 85 82 81 80 77 77 77 77 75 66 57 48 52 53 52 66 70 75 84 88 89 87 85 86 86 84
95 97 106 115 115 111 111 104 108 107 106 106 103 99 100 94 91 85 86 88 86 84 83 82 81 81 72 58 58 68 55 73 79 71 72 83 88 90 90 86 87 86 84
103 104 105 110 112 108 105 113 118 108 112 110 99 98 92 89 84 87 95 96 93 91 92 83 76 68 57 50 72 71 73 75 73 78 77 85 88 89 89 86 85 83 81
109 100 104 111 113 108 106 107 95 88 90 74 78 87 87 84 97 94 105 111 105 93 75 69 59 44 54 44 63 74 75 76 70 74 78 85 87 89 88 88 87 83 80
103 93 98 105 109 109 107 110 108 93 78 63 62 76 75 72 81 86 83 77 76 59 53 48 41 43 38 45 58 70 78 85 82 83 80 84 86 86 84 85 90 87 83
114 113 101 96 102 106 94 98 105 94 90 83 56 81 78 65 67 74 75 56 55 47 48 47 51 43 39 35 48 60 71 84 90 88 78 79 86 86 83 82 85 88 87
129 129 103 101 107 110 113 113 104 105 86 84 62 70 83 68 61 64 68 59 49 42 42 49 57 51 53 47 47 53 61 72 86 95 95 80 79 82 81 83 84 83 82
137 127 109 107 106 111 111 104 93 103 111 99 84 71 80 82 73 71 62 62 52 41 45 48 44 45 59 58 55 54 56 58 79 90 96 95 86 81 82 82 82 79 77
131 119 115 118 106 97 95 95 92 97 95 93 85 75 85 82 73 75 67 56 55 47 46 58 48 41 45 47 47 49 55 54 64 81 90 92 88 85 83 85 81 78 74
130 123 117 107 99 90 92 100 91 89 85 85 76 62 66 76 79 81 73 64 60 48 37 51 56 51 48 47 58 65 59 56 54 69 76 82 90 92 92 95 87 80 76
128 124 124 124 119 107 89 87 85 80 81 81 78 72 62 63 74 83 86 75 69 59 38 48 59 53 46 32 60 79 85 87 66 54 67 76 87 98 103 102 101 86 80
138 137 131 133 127 113 103 97 100 101 95 86 85 88 83 72 73 81 81 82 77 72 67 58 62 55 33 45 63 50 65 89 98 84 71 75 83 91 105 111 107 96 88
149 147 139 138 130 122 121 120 125 117 116 110 113 110 104 87 77 78 73 86 91 80 62 54 51 46 10 19 70 83 54 32 18 106 102 95 92 79 77 90 102 103 99
158 158 150 143 137 132 129 120 112 101 94 93 127 115 111 101 85 77 77 86 103 103 103 95 68 64 4 340 30 85 105 113 335 21 120 109 104 93 80 76 93 104 108
157 154 152 152 149 143 137 140 148 149 161 170 155 142 144 112 107 102 90 91 96 95 109 139 92 50 99 337 339 9 82 132 130 353 338 87 120 118 118 86 79 89 101
148 143 146 149 146 140 147 148 156 151 159 147 137 142 146 145 150 129 114 98 88 97 115 89 64 29 107 142 210 342 6 15 148 142 222 288 357 143 128 123 119 105 108
133 140 146 143 135 135 146 152 166 164 166 139 139 157 148 140 138 123 112 107 101 95 105 108 101 93 11 9 283 137 131 90 264 122 177 209 220 220 138 124 134 129 127